Regional Weather Roundup
Issued by NWS

Home | Current Version | Previous Version | Text Only | Print | Product List | Glossary Off
Versions: 1 2 3 4 5 6 7 8 9 10 11 12 13 14 15 16 17 18 19 20 21 22 23 24 25 26 27 28 29 30 31 32 33 34 35 36 37 38 39 40 41 42 43 44 45 46 47 48 49 50

000
ASUS43 KTOP 290059
RWRKS

WEATHER ROUNDUP FOR KANSAS
NATIONAL WEATHER SERVICE GOODLAND KS
800 PM CDT FRI APR 28 2017

NOTE:  "FAIR" INDICATES FEW OR NO CLOUDS BELOW 12,000 FEET WITH NO
SIGNIFICANT WEATHER AND/OR OBSTRUCTIONS TO VISIBILITY.

KSZ001>006-013>018-027>032-041>047-290200-
NORTHWEST KANSAS

CITY           SKY/WX    TMP DP  RH WIND       PRES   REMARKS
GOODLAND       CLOUDY    35  34  96 NE16      29.93R FOG     WCI  25
HAYS           CLOUDY    44  40  85 NE18      29.89R
HILL CITY      CLOUDY    40  38  93 NE16G23   29.93R WCI  31
RUSSELL        CLOUDY    45  40  82 N15       29.88R
$$

KSZ061>065-074>080-084>089-290200-
SOUTHWEST KANSAS

CITY           SKY/WX    TMP DP  RH WIND       PRES   REMARKS
DODGE CITY     LGT RAIN  48  46  93 N17G25    29.82R
ELKHART          N/A     44  37  76 MISG        N/A
GARDEN CITY    LGT RAIN  46  43  89 NE15      29.85R FOG
GREAT BEND     LGT RAIN  47  43  86 N21       29.85R
LIBERAL        LGT RAIN  47  46  97 NW15      29.84R
$$

KSZ066>073-081>083-090>101-290200-
SOUTHEAST KANSAS

CITY           SKY/WX    TMP DP  RH WIND       PRES   REMARKS
CHANUTE        PTCLDY    67  55  65 E6        29.77R
COFFEYVILLE    PTCLDY    66  60  81 MISG      29.75R
HUTCHINSON     CLOUDY    53  48  83 N20G28    29.81R
MEDICINE LODGE   N/A     66  42  41 NE10      29.74R
NEWTON         CLOUDY    57  52  83 N22       29.79R
PARSONS        CLOUDY    65  59  81 CALM      29.77R
WICHITA INTL   CLOUDY    67  48  50 N12       29.74R
WICHITA JABRA  CLOUDY    65  49  56 N10       29.75R
WINFIELD       MOCLDY    70  55  59 E7        29.73R
$$

KSZ007>012-019>026-033>040-048>060-102>105-290200-
NORTHEAST KANSAS

CITY           SKY/WX    TMP DP  RH WIND       PRES   REMARKS
CONCORDIA      CLOUDY    41  40  96 N18       29.91R
EMPORIA        CLOUDY    54  53  97 N18       29.81R
LAWRENCE       CLOUDY    50  49  96 NW12      29.84R FOG
MANHATTAN      CLOUDY    47  43  86 NE13      29.88R
OLATHE IND     CLOUDY    56  54  93 N13       29.82R
OLATHE EXE     CLOUDY    58  57  97 N13       29.81R
SALINA         CLOUDY    49  43  80 N17       29.89R
TOPEKA BILLARD CLOUDY    49  48  97 N13       29.86R
TOPEKA FORBES  CLOUDY    50  48  93 N14       29.85R
$$



USA.gov is the U.S. government's official web portal to all federal, state and local government web resources and services.